Regional Weather Roundup
Issued by NWS Northern Indiana

Home | Current Version | Previous Version | Graphics & Text | Print | Product List | Glossary On
Versions: 1 2 3 4 5 6 7 8 9 10 11 12 13 14 15 16 17 18 19 20 21 22 23 24 25 26 27 28 29 30 31 32 33 34 35 36 37 38 39 40 41 42 43 44 45 46 47 48 49 50
000
ASUS43 KIWX 040000
RWRIWX

KIWX WEATHER ROUNDUP
NATIONAL WEATHER SERVICE NORTHERN INDIANA
800 PM EDT THU SEP 03 2015

NOTE: "FAIR" INDICATES FEW OR NO CLOUDS BELOW 12,000 FEET WITH NO
SIGNIFICANT WEATHER AND/OR OBSTRUCTIONS TO VISIBILITY.

* THESE STATIONS ARE NOT UNDER NWS QUALITY CONTROL. THEY ALSO MAY NOT
  REPORT WEATHER SUCH AS PRECIPITATION OR FOG.

INZ001>027-040100-
NORTHERN INDIANA

CITY           SKY/WX    TMP DP  RH WIND       PRES   REMARKS
GARY*          MOCLDY    88  64  45 SW8       29.89S
SOUTH BEND     PTCLDY    84  69  60 SW6       29.90S
6HR MIN TEMP:  83; 6HR MAX TEMP:  90;

ELKHART*       CLEAR     82  70  65 SW6       29.90S
GOSHEN         CLEAR     83  69  62 W7        29.90S
6HR MIN TEMP:  83; 6HR MAX TEMP:  90;

ANGOLA*        CLEAR     84  72  65 SW3       29.91S
FORT WAYNE     PTCLDY    82  68  62 SW6       29.93R
6HR MIN TEMP:  82; 6HR MAX TEMP:  90;

PERU/GRISSOM   CLEAR     83  67  60 W6        29.92R
6HR MIN TEMP:  83; 6HR MAX TEMP:  91;


$$
INZ028>050-040100-
CENTRAL INDIANA

CITY           SKY/WX    TMP DP  RH WIND       PRES   REMARKS
LAFAYETTE      CLEAR     83  68  60 CALM      29.91R
6HR MIN TEMP:  83; 6HR MAX TEMP:  92;

KOKOMO*        CLEAR     84  66  54 W6        29.93R
6HR MIN TEMP:  84; 6HR MAX TEMP:  91;

MUNCIE*        CLEAR     80  68  66 W5        29.94S
6HR MIN TEMP:  80; 6HR MAX TEMP:  88;

INDIANAPOLIS   PTCLDY    84  65  52 SW8       29.93S
6HR MIN TEMP:  84; 6HR MAX TEMP:  91;


$$
MIZ043>046-050>051-056>058-064>065-071>073-077>080-040100-
SOUTHWEST LOWER MICHIGAN

CITY           SKY/WX    TMP DP  RH WIND       PRES   REMARKS
BATTLE CREEK   MOCLDY    83  70  64 W8        29.90S
6HR MIN TEMP:  83; 6HR MAX TEMP:  89;

BENTON HARBOR  PTCLDY    73  70  90 VRB6      29.90R FOG
6HR MIN TEMP:  73; 6HR MAX TEMP:  87;

COLDWATER*     MOCLDY    82  69  64 SW5       29.89F
6HR MIN TEMP:  82; 6HR MAX TEMP:  89;

HILLSDALE*     MOCLDY    83  67  60 CALM      29.91F
6HR MIN TEMP:  83; 6HR MAX TEMP:  88;

HOLLAND        PTCLDY    74  66  76 NW6       29.91S
6HR MIN TEMP:  74; 6HR MAX TEMP:  83; 6HR PCP:  0.03;

GRAND RAPIDS   MOCLDY    77  70  79 W12       29.89F
6HR MIN TEMP:  74; 6HR MAX TEMP:  83; 6HR PCP:  0.30;

KALAMAZOO      PTCLDY    82  69  64 NW7       29.90S
6HR MIN TEMP:  82; 6HR MAX TEMP:  89; 6HR PCP: TRACE;

STURGIS*       PTCLDY    81  70  69 CALM      29.90S
THREE RIVERS*  FAIR      83  71  65 W3        29.90S

$$
OHZ001>008-015>018-024>025-040100-
NORTHWEST OHIO

CITY           SKY/WX    TMP DP  RH WIND       PRES   REMARKS
DEFIANCE       PTCLDY    86  67  52 VRB3      29.90S
6HR MIN TEMP:  86; 6HR MAX TEMP:  91;

FINDLAY        MOCLDY    82  72  71 SW5       29.91S
6HR MIN TEMP:  82; 6HR MAX TEMP:  91;

TOLEDO EXPRESS MOCLDY    81  70  69 SW6       29.88F
6HR MIN TEMP:  81; 6HR MAX TEMP:  90;

TOLEDO METCALF MOCLDY    83  68  60 S6        29.89F
6HR MIN TEMP:  83; 6HR MAX TEMP:  91;

LIMA           PTCLDY    82  68  62 SW5       29.94R
6HR MIN TEMP:  82; 6HR MAX TEMP:  89;


$$
AND FOR LAKE MICHIGAN COASTAL AND OPEN LAKE BUOY OBSERVATIONS

STATION/POSITION TEMP    WIND        PRES    VSBY  WAVE
                 AIR SEA DIR/SP/G                  HT/PER
                 (F)     (DEG/KT/KT) (MB)    (MI)  (FT/S)
CALUMET HARBOR    89     230/  5/ 12   N/A
MICHIGAN CITY     83     210/  9/  9   N/A
BURNS HARBOR      83     260/ 10/ 13 1012.2S
SAINT JOSEPH      78     360/  9/ 14 1012.9F
SOUTH LAKE BUOY   70 71   10/ 12/ 14 1012.0F         1/ 3
4 MI NW BRIDGMAN  77 74  270/  4/  4   N/A           1
MICHIGAN CITY     80 76  250/  4/  6   N/A           0

$$
&&


USA.gov is the U.S. government's official web portal to all federal, state and local government web resources and services.